FW3177 Weather Reports


time (UTC)temp
C
wind
direction
speed
KPH
gust
KPH
rain 1hr
cm
rain 24hr
cm
rain mn
cm
humidity
%
barometer
mb
20260504220021 28 262 9.7 20.9 0.00 0.00 0.00 40 1008.0
20260504215521 28 264 6.4 20.9 0.00 0.00 0.00 40 1008.1
20260504215020 28 260 8.0 20.9 0.00 0.00 0.00 40 1008.2
20260504214520 28 250 9.7 19.3 0.00 0.00 0.00 40 1008.2
20260504214019 28 239 8.0 25.7 0.00 0.00 0.00 41 1008.2
20260504213519 28 279 11.3 25.7 0.00 0.00 0.00 39 1008.2
20260504213041 28 285 8.0 24.1 0.00 0.00 0.00 40 1008.2
20260504212518 28 287 9.7 22.5 0.00 0.00 0.00 38 1008.2
20260504212017 28 257 9.7 20.9 0.00 0.00 0.00 36 1008.2
20260504211518 28 288 8.0 24.1 0.00 0.00 0.00 35 1008.2
20260504211016 28 248 9.7 24.1 0.00 0.00 0.00 35 1008.3
20260504210516 28 258 12.9 24.1 0.00 0.00 0.00 34 1008.3
20260504210018 28 239 9.7 24.1 0.00 0.00 0.00 34 1008.3
20260504205515 28 269 9.7 22.5 0.00 0.00 0.00 34 1008.4
20260504205014 28 293 12.9 22.5 0.00 0.00 0.00 34 1008.4
20260504204513 28 245 0.0 17.7 0.00 0.00 0.00 35 1008.5
20260504204013 28 287 1.6 14.5 0.00 0.00 0.00 34 1008.5
20260504203513 28 265 4.8 14.5 0.00 0.00 0.00 33 1008.5
20260504203012 28 271 1.6 14.5 0.00 0.00 0.00 33 1008.6
20260504202512 28 238 0.0 8.0 0.00 0.00 0.00 32 1008.6
20260504202010 28 271 1.6 8.0 0.00 0.00 0.00 31 1008.6
20260504201517 28 267 0.0 8.0 0.00 0.00 0.00 31 1008.7
20260504201013 28 329 0.0 8.0 0.00 0.00 0.00 31 1008.7
20260504200510 28 261 0.0 6.4 0.00 0.00 0.00 32 1008.7
20260504200010 28 259 0.0 6.4 0.00 0.00 0.00 32 1008.7
20260504195508 28 258 0.0 1.6 0.00 0.00 0.00 32 1008.7
20260504195008 27 258 0.0 4.8 0.00 0.00 0.00 31 1008.8
20260504194508 28 262 0.0 4.8 0.00 0.00 0.00 32 1008.8
20260504194008 27 264 0.0 1.6 0.00 0.00 0.00 30 1008.8
20260504193508 27 261 0.0 3.2 0.00 0.00 0.00 31 1008.9
20260504193007 28 264 0.0 4.8 0.00 0.00 0.00 32 1008.9
20260504192506 27 262 0.0 4.8 0.00 0.00 0.00 31 1008.9
20260504192006 27 267 0.0 3.2 0.00 0.00 0.00 31 1008.9
20260504191506 28 268 0.0 3.2 0.00 0.00 0.00 30 1009.0
20260504191007 28 193 0.0 1.6 0.00 0.00 0.00 31 1009.0
20260504190503 27 264 0.0 0.0 0.00 0.00 0.00 31 1009.0
20260504190002 27 55 0.0 0.0 0.00 0.00 0.00 31 1009.1
20260504185503 27 90 0.0 0.0 0.00 0.00 0.00 33 1009.1
20260504185001 27 88 0.0 0.0 0.00 0.00 0.00 32 1009.2
20260504184608 27 206 0.0 0.0 0.00 0.00 0.00 34 1009.2
20260504184101 27 65 0.0 0.0 0.00 0.00 0.00 34 1009.3
20260504183601 26 72 0.0 0.0 0.00 0.00 0.00 35 1009.3
20260504183058 26 72 0.0 0.0 0.00 0.00 0.00 35 1009.4
20260504182559 26 72 0.0 0.0 0.00 0.00 0.00 33 1009.4
20260504182056 26 68 0.0 0.0 0.00 0.00 0.00 34 1009.4
20260504181555 26 67 0.0 1.6 0.00 0.00 0.00 36 1009.5
20260504181054 26 142 0.0 4.8 0.00 0.00 0.00 35 1009.5
20260504180553 26 111 0.0 4.8 0.00 0.00 0.00 35 1009.6
20260504180053 25 47 0.0 3.2 0.00 0.00 0.00 35 1009.6
20260504175555 25 86 0.0 3.2 0.00 0.00 0.00 37 1009.6
20260504175054 25 47 0.0 3.2 0.00 0.00 0.00 36 1009.6
20260504174600 25 32 0.0 3.2 0.00 0.00 0.00 35 1009.7
20260504174051 25 51 0.0 6.4 0.00 0.00 0.00 37 1009.7
20260504173550 25 38 0.0 3.2 0.00 0.00 0.00 35 1009.7
20260504173054 25 77 0.0 1.6 0.00 0.00 0.00 38 1009.7
20260504172550 24 49 0.0 1.6 0.00 0.00 0.00 39 1009.8
20260504172053 25 65 0.0 3.2 0.00 0.00 0.00 38 1009.9
20260504171548 24 77 0.0 3.2 0.00 0.00 0.00 38 1010.0
20260504171052 24 45 0.0 0.0 0.00 0.00 0.00 38 1010.0
20260504170547 23 44 0.0 0.0 0.00 0.00 0.00 39 1010.1
20260504151027 20 63 0.0 3.2 0.00 0.00 0.00 48 1010.5
20260504150526 19 222 0.0 0.0 0.00 0.00 0.00 52 1010.5
20260504141017 16 222 0.0 0.0 0.00 0.00 0.00 60 1010.2
20260504140517 16 222 0.0 0.0 0.00 0.00 0.00 61 1010.2
20260504130510 15 222 0.0 0.0 0.00 0.00 0.00 62 1009.7
20260504110603 15 222 0.0 0.0 0.00 0.00 0.00 63 1009.7
20260504110120 15 222 0.0 0.0 0.00 0.00 0.00 62 1009.7
20260504100555 16 222 0.0 0.0 0.00 0.00 0.00 59 1009.6
20260504090115 16 222 0.0 0.0 0.00 0.00 0.00 59 1009.6
20260504081542 17 222 0.0 0.0 0.00 0.00 0.00 60 1009.5
20260504081044 17 222 0.0 0.0 0.00 0.00 0.00 57 1009.4
20260504080543 17 222 0.0 0.0 0.00 0.00 0.00 57 1009.5
20260504050533 21 239 0.0 0.0 0.00 0.00 0.00 49 1009.1
20260504045528 21 258 0.0 0.0 0.00 0.00 0.00 50 1009.1
20260504045028 21 258 0.0 0.0 0.00 0.00 0.00 51 1009.0
20260504044538 21 258 0.0 0.0 0.00 0.00 0.00 52 1009.0
20260504044027 21 258 0.0 0.0 0.00 0.00 0.00 52 1009.0
20260504043527 21 258 0.0 0.0 0.00 0.00 0.00 51 1009.0
20260504043033 21 258 0.0 0.0 0.00 0.00 0.00 50 1009.0
20260504042527 21 258 0.0 0.0 0.00 0.00 0.00 49 1008.9
20260504042027 21 258 0.0 0.0 0.00 0.00 0.00 49 1008.9
20260504041527 22 258 0.0 0.0 0.00 0.00 0.00 48 1008.9
20260504041026 22 258 0.0 0.0 0.00 0.00 0.00 48 1008.9
20260504040528 22 258 0.0 0.0 0.00 0.00 0.00 48 1008.9
20260504040026 22 258 0.0 0.0 0.00 0.00 0.00 48 1008.8
20260504035526 22 258 0.0 0.0 0.00 0.00 0.00 49 1008.7
20260504035026 23 258 0.0 0.0 0.00 0.00 0.00 50 1008.7
20260504034536 23 258 0.0 0.0 0.00 0.00 0.00 50 1008.6
20260504034025 23 258 0.0 0.0 0.00 0.00 0.00 49 1008.6
20260504033527 23 258 0.0 0.0 0.00 0.00 0.00 48 1008.6
20260504033036 23 258 0.0 0.0 0.00 0.00 0.00 48 1008.6
20260504032525 24 258 0.0 0.0 0.00 0.00 0.00 47 1008.6
20260504032026 24 258 0.0 0.0 0.00 0.00 0.00 47 1008.6
20260504031525 24 258 0.0 0.0 0.00 0.00 0.00 45 1008.6
20260504031024 25 258 0.0 0.0 0.00 0.00 0.00 44 1008.5
20260504030524 25 258 0.0 0.0 0.00 0.00 0.00 45 1008.5
20260504030024 25 258 0.0 0.0 0.00 0.00 0.00 44 1008.5
20260504025524 25 258 0.0 0.0 0.00 0.00 0.00 44 1008.5
20260504025027 25 258 0.0 0.0 0.00 0.00 0.00 43 1008.4
20260504024524 25 267 0.0 0.0 0.00 0.00 0.00 43 1008.4
20260504024023 26 274 0.0 0.0 0.00 0.00 0.00 43 1008.4
20260504023525 26 280 0.0 0.0 0.00 0.00 0.00 43 1008.4
20260504023023 26 261 0.0 0.0 0.00 0.00 0.00 43 1008.4
20260504022523 26 286 0.0 0.0 0.00 0.00 0.00 43 1008.4
20260504022023 26 275 0.0 14.5 0.00 0.00 0.00 43 1008.4
20260504021531 26 246 3.2 14.5 0.00 0.00 0.00 43 1008.4
20260504021021 26 280 1.6 12.9 0.00 0.00 0.00 43 1008.4
20260504020522 26 252 0.0 12.9 0.00 0.00 0.00 43 1008.4
20260504020021 27 274 4.8 11.3 0.00 0.00 0.00 43 1008.5
20260504015520 27 269 4.8 14.5 0.00 0.00 0.00 43 1008.5
20260504015020 27 271 3.2 19.3 0.00 0.00 0.00 42 1008.5
20260504014520 27 253 4.8 19.3 0.00 0.00 0.00 42 1008.6
20260504014019 27 282 4.8 16.1 0.00 0.00 0.00 42 1008.5
20260504013523 28 276 4.8 11.3 0.00 0.00 0.00 41 1008.6
20260504013028 28 239 6.4 14.5 0.00 0.00 0.00 41 1008.6
20260504012518 28 268 8.0 14.5 0.00 0.00 0.00 41 1008.7
20260504012017 28 249 4.8 12.9 0.00 0.00 0.00 41 1008.7
20260504011517 28 256 6.4 11.3 0.00 0.00 0.00 40 1008.9
20260504011016 28 269 4.8 14.5 0.00 0.00 0.00 39 1008.9
20260504010518 28 255 8.0 14.5 0.00 0.00 0.00 38 1008.9
20260504010014 28 238 6.4 16.1 0.00 0.00 0.00 37 1008.9
20260504005513 28 252 6.4 19.3 0.00 0.00 0.00 37 1009.0
20260504005013 28 288 8.0 17.7 0.00 0.00 0.00 36 1009.0
20260504004513 28 278 8.0 17.7 0.00 0.00 0.00 36 1009.1
20260504004011 28 274 4.8 16.1 0.00 0.00 0.00 35 1009.1
20260504003512 29 276 8.0 16.1 0.00 0.00 0.00 35 1009.1
20260504003011 29 278 6.4 17.7 0.00 0.00 0.00 36 1009.2
20260504002510 29 266 9.7 17.7 0.00 0.00 0.00 36 1009.2
20260504002010 29 264 8.0 17.7 0.00 0.00 0.00 36 1009.2
20260504001510 29 238 6.4 17.7 0.00 0.00 0.00 36 1009.2
20260504001009 29 269 8.0 19.3 0.00 0.00 0.00 36 1009.3
20260504000508 29 257 9.7 19.3 0.00 0.00 0.00 37 1009.3
20260504000007 29 232 8.0 17.7 0.00 0.00 0.00 37 1009.4
20260503235506 29 290 6.4 19.3 0.00 0.00 0.00 37 1009.4
20260503235007 29 271 6.4 19.3 0.00 0.00 0.00 37 1009.5
20260503234505 30 282 8.0 19.3 0.00 0.00 0.00 37 1009.6
20260503234008 30 241 6.4 16.1 0.00 0.00 0.00 37 1009.6
20260503233504 30 265 6.4 17.7 0.00 0.00 0.00 36 1009.7
20260503233003 30 259 6.4 19.3 0.00 0.00 0.00 36 1009.7
20260503232502 30 250 6.4 19.3 0.00 0.00 0.00 35 1009.7
20260503232001 30 276 6.4 17.7 0.00 0.00 0.00 35 1009.8
20260503231502 30 231 8.0 17.7 0.00 0.00 0.00 34 1009.9
20260503231102 30 269 6.4 16.1 0.00 0.00 0.00 34 1010.0
20260503230603 30 280 6.4 20.9 0.00 0.00 0.00 33 1010.0
20260503230059 30 276 6.4 20.9 0.00 0.00 0.00 32 1010.0
20260503225557 30 250 8.0 20.9 0.00 0.00 0.00 30 1010.1
20260503225057 30 255 6.4 14.5 0.00 0.00 0.00 30 1010.2
20260503224556 30 219 4.8 16.1 0.00 0.00 0.00 31 1010.2
20260503224056 30 246 4.8 16.1 0.00 0.00 0.00 30 1010.3
20260503223555 30 290 6.4 16.1 0.00 0.00 0.00 30 1010.4
20260503223055 30 270 1.6 14.5 0.00 0.00 0.00 31 1010.5
20260503222559 29 259 4.8 14.5 0.00 0.00 0.00 29 1010.6
20260503222052 30 268 0.0 11.3 0.00 0.00 0.00 30 1010.6
20260503221553 29 266 4.8 11.3 0.00 0.00 0.00 28 1010.7
20260503221055 30 256 0.0 9.7 0.00 0.00 0.00 29 1010.8
20260503220550 29 250 1.6 12.9 0.00 0.00 0.00 28 1010.8
20260503220105 29 281 3.2 12.9 0.00 0.00 0.00 29 1010.9